PDT,Max TemperatureF,Mean TemperatureF,Min TemperatureF,Max Dew PointF,MeanDew PointF,Min DewpointF,Max Humidity, Mean Humidity, Min Humidity, Max Sea Level PressureIn, Mean Sea Level PressureIn, Min Sea Level PressureIn, Max VisibilityMiles, Mean VisibilityMiles, Min VisibilityMiles, Max Wind SpeedMPH, Mean Wind SpeedMPH, Max Gust SpeedMPH,PrecipitationIn, CloudCover, Events, WindDirDegrees
2013-5-1,88,74,60,41,30,24,27,21,14,30.05,29.95,29.80,10,10,10,23,12,75,0.00,0,,303
2013-5-2,92,77,61,40,32,27,36,23,10,30.16,30.09,30.04,10,10,9,24,8,53,0.00,0,,316
2013-5-3,93,74,55,44,38,32,62,38,13,30.05,29.90,29.75,10,10,6,14,4,16,0.00,0,,338
2013-5-4,91,74,57,47,40,32,60,36,12,29.74,29.63,29.50,10,9,2,16,6,18,0.00,0,,333
2013-5-5,76,66,55,49,46,42,77,55,33,29.81,29.69,29.57,10,10,10,18,7,26,0.00,2,,230
2013-5-6,75,67,59,54,48,44,69,52,35,29.96,29.86,29.82,10,10,10,17,5,28,0.11,6,Rain,231
2013-5-7,72,66,59,54,52,47,80,64,47,30.03,29.99,29.96,10,10,10,10,3,23,T,7,,22
2013-5-8,77,68,59,50,47,44,64,50,36,30.10,30.06,30.02,10,10,10,16,7,30,0.00,3,,321
2013-5-9,82,68,53,54,51,48,89,63,36,30.12,30.08,30.02,10,10,10,15,9,31,0.00,0,,333
2013-5-10,87,70,53,57,53,50,83,59,35,30.14,30.09,30.03,10,10,10,14,6,30,0.00,0,,328
2013-5-11,95,77,59,58,53,42,78,52,26,30.09,30.05,29.99,10,10,10,25,4,33,0.00,0,,326
2013-5-12,95,79,62,55,49,39,63,40,16,30.09,30.03,29.96,10,10,10,16,7,29,0.00,0,,333
2013-5-13,94,78,62,53,44,37,43,29,15,30.04,29.96,29.87,10,10,10,25,8,33,0.00,0,,338
2013-5-14,92,77,61,53,49,38,72,48,24,29.92,29.88,29.84,10,10,10,15,8,31,0.00,0,,330
2013-5-15,83,69,55,47,43,38,66,44,22,30.00,29.96,29.92,10,10,10,20,7,24,0.00,0,,340
2013-5-16,78,68,58,54,48,42,72,53,33,30.02,29.97,29.91,10,10,10,18,9,24,T,3,Rain,332
2013-5-17,78,65,51,46,40,33,77,50,22,30.04,29.99,29.96,10,10,10,17,8,24,0.00,0,,320
2013-5-18,83,67,51,47,43,36,77,48,18,30.11,30.06,30.02,10,10,10,16,9,31,0.00,0,,327
2013-5-19,88,73,58,49,40,25,72,44,15,30.08,30.00,29.93,10,10,10,24,12,31,0.00,0,,311
2013-5-20,90,75,60,42,35,26,51,31,10,29.99,29.94,29.88,10,10,10,16,10,20,0.00,0,,312
2013-5-21,84,72,59,45,36,20,51,31,10,29.92,29.89,29.86,10,10,10,26,7,37,0.00,0,,328
2013-5-22,73,62,50,40,27,16,55,34,12,29.98,29.92,29.85,10,10,10,24,16,35,0.00,0,,315
2013-5-23,75,61,47,42,38,33,80,52,23,29.96,29.93,29.88,10,10,9,15,6,20,0.00,0,,323
2013-5-24,81,66,51,44,38,34,77,48,18,29.99,29.94,29.88,10,10,10,12,4,16,0.00,0,,332
2013-5-25,78,64,49,45,41,36,80,54,27,30.01,29.96,29.93,10,10,9,15,6,21,0.00,0,,326
2013-5-26,80,67,54,50,47,45,77,54,30,30.09,30.04,30.01,10,10,10,20,10,36,0.00,0,,318
2013-5-27,75,64,53,54,50,45,77,62,46,30.09,30.05,30.00,10,10,10,23,10,29,T,3,Rain,328
2013-5-28,79,70,60,55,53,49,84,62,39,29.99,29.93,29.86,10,10,10,21,8,26,T,3,Rain,327
2013-5-29,82,71,60,53,49,44,67,49,30,29.94,29.88,29.83,10,10,10,20,9,26,T,2,Rain,330
2013-5-30,86,70,54,48,43,31,83,50,17,29.94,29.91,29.87,10,10,10,17,10,23,0.00,0,,329
2013-5-31,93,76,58,47,42,29,67,40,12,29.96,29.91,29.86,10,10,10,22,10,28,0.00,0,,320